197  
ASPQ40 PGUM 180910  
RWRPQ  
WEATHER ROUNDUP FOR THE MARIANAS AND MICRONESIA  
NATIONAL WEATHER SERVICE TIYAN GU  
700 PM CHST THU OCT 18 2018  
 
GUZ001>004-181000-  
MARIANA ISLANDS-  
 
CITY SKY/WX TMP DP RH WIND PRES REMARKS
 
GUAM AIRPORT CLEAR 84 81 89 NE6 29.86R HX 98  
ANDERSEN AFB PTCLDY 81 75 83 NE6 29.87R  
ROTA AIRPORT CLEAR 79 75 89 E6 29.86R  
TINIAN AP PTCLDY 81 75 83 NE7 29.85  
SAIPAN AP CLEAR 79 79 100 NE9 29.86R  
 

 
 
PMZ161-181000-  
REPUBLIC OF PALAU-  
 
CITY SKY/WX TMP DP RH WIND PRES REMARKS
 
KOROR AP MOCLDY 81 75 83 NE3 29.80R  
KOROR WSO NOT AVBL  
 

 
 
PMZ171>174-181000-  
FEDERATED STATES OF MICRONESIA-  
 
CITY SKY/WX TMP DP RH WIND PRES REMARKS
 
YAP AIRPORT MOCLDY 81 79 94 VRB3 29.81R  
CHUUK AP CLOUDY 82 77 83 VRB6 29.77R HX 91  
POHNPEI AP NOT AVBL  
POHNPEI WSO PTCLDY 79 77 94 SE3 29.86R  
KOSRAE AP NOT AVBL  
 

 
 
PMZ181-181000-  
REPUBLIC OF THE MARSHALL ISLANDS-  
 
CITY SKY/WX TMP DP RH WIND PRES REMARKS
 
KWAJALEIN AP DRIZZLE 79 77 94 SW6 29.87S  
MAJURO AP NOT AVBL  
MAJURO WSO MOCLDY 82 75 78 SW6 29.83R  
 

 
 
 
 
CLICK HERE TO GO TO PREVIOUS BULLETINS.

The Nexlab GU Page Main Text Page